CZ-6A DEB, 54639

Orbit data source: Space-Track

CZ-6A DEB, 54639 is space debris in SSO originally from a launch on Fri, 11 Nov 2022 UTC launched from the Taiyaun Space Center, China (TSC). Debris objects in space refer to the collection of defunct objects orbiting the Earth. Examples of debris include non-operational satellites, rocket bodies, and fragments generated from explosions, collisions, or faulty payload assembly.

Loading next visibility...
Identifier
54639, 2022-151PR
Orbit
SSO
Country
Flag of CNCN / PRC
Related business
Manufacturer
SAST
Mission
Spacecraft
Bus & Motor
Unknown
Mass
Unknown
Launch date (UTC)
2022-11-11 (3 years ago)
Launch vehicle
Unknown
Launch site
Taiyaun Space Center, China (TSC)
Object type
Payload
Rocket body
Debris
Shape & HBR
Unknown shape, 0.1 m
Radar Cross Section
Small (<0.1 m²)

Expand to show TLE details & history
Last TLE update: 1 day ago

TLE from 1 day ago
0 CZ-6A DEB
1 54639U 22151PR  25352.44407062  .00000142  00000-0  98729-4 0  9998
2 54639  98.8104 354.4672 0030059 114.7090 245.7216 14.13179121159775
Epoch: 2025-12-18T10:39Z
TLE epoch observation values (Epoch: 2025-12-18T10:39:27.701Z)
Latitude
-0.00008°
Longitude
107.3023°
Altitude
860.403 km
Speed
7.418 km/s
True Right ascension
23h 37m 52s
True Declination
0° 00' 00"
Sunlit
Object was in daylight at epoch
Visualization orbit readout
Latitude
Unknown
Longitude
Unknown
Altitude
Unknown
Speed
Unknown
Apparent Right ascension
Unknown
Apparent Declination
Unknown
Sunlit
N/A
Visualization observer readout
Local Sidereal Time
15:02:34
Azimuth
Unknown
Elevation
Unknown
Doppler factor
Unknown
Orbital elements
Apogee altitude
867.4 km
Perigee altitude
823.972 km
Semi-major axis
7,223.823 km
Eccentricity
0.00301
Inclination
98.8104°
RAAN
354.4672°
Arg. of periapsis
114.709°
True anomaly
245.4081°
Mean anomaly
245.7216°
Eccentric anomaly
245.5648°
Mean motion
3.53503 °/min
Orbital period
101.84 mins
BSTAR
0.000098729
Loading maneuver chart data...
Computing Atmospheric mass density...

Documentation

Showing up to 5 results
|